Flag for Ireland Weather past 2 weeks in Letterkenny, Ireland

Now
49 °F

Cool.


Feels Like: 48 °F
Forecast: 39 / 61 °F
Wind: 3 mph from Northwest

Location: Castlederg

Current Time: May 22, 2015 at 11:42:22 PM

Latest Report: May 22, 2015 at 10:00 PM


Visibility: 13 mi

Pressure: 30.35 "Hg

Humidity: 78%

Dew point: 42 °F

Location of LetterkennyLocation

Historic Weather in Letterkenny — Graph

°F

Letterkenny temperature yesterday

Maximum temperature yesterday: 58 °F (at 3:00 PM)
Minimum temperature yesterday: 43 °F (at 12:00 AM)
Average temperature yesterday: 52 °F

Past Weeks' High & Low Weather Summary

 TemperatureHumidityPressure
High59 °F (May 11, 4:00 PM)98% (May 13, 8:00 AM)30.35 "Hg (May 13, 8:00 AM)
Low31 °F (May 13, 6:00 AM)47% (May 13, 2:00 PM)29.41 "Hg (May 18, 5:00 PM)
Average49 °F80%29.94 "Hg
* Reported May 7 11:00 PM — May 22 10:00 PM, Letterkenny, Weather by CustomWeather, © 2015

Note: Actual official high and low records may vary slightly from our data, if they occured in-between our weather recording intervals... More about our weather records

Advertising

Letterkenny weather history for previous 24 hours

 ConditionsComfort  
Time TempWeatherWind HumidityBarometerVisibility
10:00 PM
Fri, May 22
49 °FCool.3 mph78%30.35 "Hg13 mi
9:00 PM52 °FCool.5 mph70%30.33 "Hg13 mi
8:00 PM55 °FCool.6 mph66%30.32 "Hg22 mi
7:00 PM55 °FCool.7 mph65%30.31 "Hg15 mi
6:00 PM57 °FCool.7 mph63%30.30 "Hg17 mi
5:00 PM58 °FCool.9 mph61%30.30 "Hg28 mi
4:00 PM58 °FCool.9 mph70%30.29 "Hg28 mi
3:00 PM57 °FCool.9 mph72%30.27 "Hg19 mi
2:00 PM58 °FCool.12 mph73%30.26 "Hg31 mi
1:00 PM58 °FCool.9 mph77%30.24 "Hg28 mi
12:00 PM57 °FCool.9 mph80%30.24 "Hg19 mi
11:00 AM57 °FCool.15 mph83%30.23 "Hg31 mi
10:00 AM54 °FLight freezing rain. Cloudy.16 mph91%30.23 "Hg16 mi
9:00 AM53 °FCool.13 mph92%30.21 "Hg31 mi
8:00 AM53 °FCool.14 mph91%30.21 "Hg31 mi
7:00 AM53 °FCool.10 mph94%30.21 "Hg31 mi
6:00 AM52 °FCool.13 mph96%30.20 "Hg8 mi
5:00 AM51 °FCool.13 mph96%30.20 "Hg9 mi
4:00 AM52 °FCool.12 mph95%30.22 "Hg12 mi
3:00 AM52 °FCool.14 mph95%30.22 "Hg16 mi
2:00 AM53 °FCool.14 mph94%30.22 "Hg12 mi
1:00 AM53 °FCool.13 mph93%30.22 "Hg31 mi
12:00 AM53 °FCool.15 mph95%30.22 "Hg16 mi
11:00 PM
Thu, May 21
53 °FCool.10 mph96%30.22 "Hg17 mi
Weather by CustomWeather, © 2015

See weather overviewHow to use our weather pages